Pagina principale
METAR-TAF:

METAR-TAF

Aeroporti :

Brescia, Italia

Montichiari

latitudine: 45-24-02N, longitudine: 010-18-59E, altezza: 104 m

Osservazione

Il bollettino è stato emesso 41 minuti fa, alle 09:50 UTC
Vento 5 kt da ovest/nord-ovest
Temperature 19°C
Umidità 37%
Pressione 1019 hPa
Visibilità 10 km o più
nessuna nube inferiore a 1500 m e nessun cumulonembo

METAR: LIPO 210950Z 29005KT CAVOK 19/04 Q1019

Ora: 12:31 (10:31 UTC)

Previsione

Il bollettino è stato emesso 5 ore e 31 minuti fa, alle 05:00 UTC
Previsione valida dal 21 alle 06 UTC al 22 alle 06 UTC
Vento 5 kt da direzioni variabili
Visibilità 10 km o più
nessuna nube inferiore a 1500 m e nessun cumulonembo

TAF: LIPO 210500Z 2106/2206 VRB05KT CAVOK

Osservazioni e previsioni meteorologiche di più di 4000 aeroporti (messaggi METAR e TAF).

Le stazioni disponibili sono rappresentate dai dischi gialli e rossi sulla carta.

Puntare il mouse per vedere il nome della stazione.

Clicca sopra per visualizzare le osservazioni e previsioni meteorologiche.

Per cambiare la mappa : fare clic sui pulsanti verdi con una croce nera per ingrandire, il pulsante verde con un trattino per diminuire, o sulla freccia verde per le mappe adiacenti.


METAR-TAF: